Time,TemperatureF,DewpointF,PressureIn,WindDirection,WindDirectionDegrees,WindSpeedMPH,WindSpeedGustMPH,Humidity,HourlyPrecipIn,Conditions,Clouds,dailyrainin,SolarRadiationWatts/m^2,SoftwareType,DateUTC
2013-01-08 00:02:00,39.0,31.0,29.93,NW,326,7.0,8.0,73,-99.99,,,-99.99,0.000000,,2013-01-08 07:02:00,
2013-01-08 00:12:00,41.0,31.0,29.92,NNW,328,9.0,11.0,68,-99.99,,,-99.99,0.000000,,2013-01-08 07:12:00,
2013-01-08 00:22:00,41.0,31.0,29.92,NNW,328,9.0,11.0,68,-99.99,,,-99.99,0.000000,,2013-01-08 07:22:00,
2013-01-08 00:32:00,41.0,32.0,29.91,NW,324,8.0,11.0,69,-99.99,,,-99.99,0.000000,,2013-01-08 07:32:00,
2013-01-08 00:42:00,40.0,32.0,29.92,NW,305,5.0,7.0,72,-99.99,,,-99.99,0.000000,,2013-01-08 07:42:00,
2013-01-08 00:52:00,40.0,32.0,29.92,NNW,332,2.0,4.0,73,-99.99,,,-99.99,0.000000,,2013-01-08 07:52:00,
2013-01-08 01:02:00,40.0,32.0,29.92,NNW,332,2.0,4.0,73,-99.99,,,-99.99,0.000000,,2013-01-08 08:02:00,
2013-01-08 01:12:00,40.0,32.0,29.92,NNW,335,5.0,9.0,73,-99.99,,,-99.99,0.000000,,2013-01-08 08:12:00,
2013-01-08 01:22:00,40.0,32.0,29.92,NNW,335,5.0,9.0,73,-99.99,,,-99.99,0.000000,,2013-01-08 08:22:00,
2013-01-08 01:32:00,41.0,32.0,29.89,NNW,335,11.0,19.0,72,-99.99,,,-99.99,0.000000,,2013-01-08 08:32:00,
2013-01-08 01:42:00,44.0,31.0,29.88,NNW,333,11.0,17.0,58,-99.99,,,-99.99,0.000000,,2013-01-08 08:42:00,
2013-01-08 01:53:00,44.0,31.0,29.88,NNW,333,11.0,17.0,58,-99.99,,,-99.99,0.000000,,2013-01-08 08:53:00,
2013-01-08 02:02:00,38.0,29.0,29.90,SSE,149,7.0,19.0,69,-99.99,,,-99.99,0.000000,,2013-01-08 09:02:00,
2013-01-08 02:12:00,35.0,29.0,29.91,NW,313,5.0,10.0,79,-99.99,,,-99.99,0.000000,,2013-01-08 09:12:00,
2013-01-08 02:22:00,35.0,29.0,29.91,NW,313,5.0,10.0,79,-99.99,,,-99.99,0.000000,,2013-01-08 09:22:00,
2013-01-08 02:32:00,35.0,29.0,29.91,WNW,302,8.0,12.0,79,-99.99,,,-99.99,0.000000,,2013-01-08 09:32:00,
2013-01-08 02:42:00,37.0,30.0,29.90,WNW,300,8.0,12.0,77,-99.99,,,-99.99,0.000000,,2013-01-08 09:42:00,
2013-01-08 02:52:00,37.0,30.0,29.90,WNW,300,8.0,12.0,77,-99.99,,,-99.99,0.000000,,2013-01-08 09:52:00,
2013-01-08 03:02:00,38.0,31.0,29.90,WNW,300,7.0,9.0,74,-99.99,,,-99.99,0.000000,,2013-01-08 10:02:00,
2013-01-08 03:12:00,38.0,31.0,29.90,WNW,283,6.0,10.0,74,-99.99,,,-99.99,0.000000,,2013-01-08 10:12:00,
2013-01-08 03:22:00,38.0,31.0,29.90,WNW,283,6.0,10.0,74,-99.99,,,-99.99,0.000000,,2013-01-08 10:22:00,
2013-01-08 03:32:00,39.0,31.0,29.89,WNW,300,8.0,11.0,73,-99.99,,,-99.99,0.000000,,2013-01-08 10:32:00,
2013-01-08 03:42:00,40.0,30.0,29.89,West,261,6.0,10.0,66,-99.99,,,-99.99,0.000000,,2013-01-08 10:42:00,
2013-01-08 03:52:00,40.0,30.0,29.89,West,261,6.0,10.0,66,-99.99,,,-99.99,0.000000,,2013-01-08 10:52:00,
2013-01-08 04:02:00,39.0,29.0,29.90,WNW,286,4.0,8.0,67,-99.99,,,-99.99,0.000000,,2013-01-08 11:02:00,
2013-01-08 04:12:00,40.0,29.0,29.90,NW,307,2.0,4.0,65,-99.99,,,-99.99,0.000000,,2013-01-08 11:12:00,
2013-01-08 04:22:00,40.0,29.0,29.90,NW,307,2.0,4.0,65,-99.99,,,-99.99,0.000000,,2013-01-08 11:22:00,
2013-01-08 04:32:00,38.0,29.0,29.89,NW,316,7.0,10.0,68,-99.99,,,-99.99,0.000000,,2013-01-08 11:32:00,
2013-01-08 04:42:00,37.0,28.0,29.88,NW,313,9.0,11.0,68,-99.99,,,-99.99,0.000000,,2013-01-08 11:42:00,
2013-01-08 04:53:00,37.0,28.0,29.88,NW,313,9.0,11.0,68,-99.99,,,-99.99,0.000000,,2013-01-08 11:53:00,
2013-01-08 05:02:00,38.0,27.0,29.88,WNW,298,7.0,8.0,65,-99.99,,,-99.99,0.000000,,2013-01-08 12:02:00,
2013-01-08 05:12:00,38.0,26.0,29.88,WNW,293,5.0,7.0,61,-99.99,,,-99.99,0.000000,,2013-01-08 12:12:00,
2013-01-08 05:22:00,38.0,26.0,29.88,WNW,293,5.0,7.0,61,-99.99,,,-99.99,0.000000,,2013-01-08 12:22:00,
2013-01-08 05:32:00,39.0,25.0,29.88,WNW,294,3.0,7.0,56,-99.99,,,-99.99,0.000000,,2013-01-08 12:32:00,
2013-01-08 05:42:00,39.0,26.0,29.88,NW,326,2.0,3.0,60,-99.99,,,-99.99,0.000000,,2013-01-08 12:42:00,
2013-01-08 05:53:00,37.0,26.0,29.89,NW,311,4.0,6.0,65,-99.99,,,-99.99,0.000000,,2013-01-08 12:53:00,
2013-01-08 06:03:00,37.0,26.0,29.89,NW,311,4.0,6.0,65,-99.99,,,-99.99,0.000000,,2013-01-08 13:03:00,
2013-01-08 06:12:00,37.0,26.0,29.89,NNW,333,5.0,7.0,65,-99.99,,,-99.99,0.000000,,2013-01-08 13:12:00,
2013-01-08 06:22:00,37.0,26.0,29.89,NNW,333,5.0,7.0,65,-99.99,,,-99.99,0.000000,,2013-01-08 13:22:00,
2013-01-08 06:33:00,36.0,26.0,29.89,NW,307,8.0,9.0,68,-99.99,,,-99.99,0.000000,,2013-01-08 13:33:00,
2013-01-08 06:42:00,36.0,26.0,29.90,WNW,289,7.0,8.0,65,-99.99,,,-99.99,0.000000,,2013-01-08 13:42:00,
2013-01-08 06:53:00,36.0,26.0,29.90,WNW,289,7.0,8.0,65,-99.99,,,-99.99,0.000000,,2013-01-08 13:53:00,
2013-01-08 07:02:00,38.0,26.0,29.91,SW,230,4.0,6.0,62,-99.99,,,-99.99,0.000000,,2013-01-08 14:02:00,
2013-01-08 07:12:00,38.0,27.0,29.92,South,177,2.0,5.0,62,-99.99,,,-99.99,0.000000,,2013-01-08 14:12:00,
2013-01-08 07:23:00,38.0,27.0,29.92,South,177,2.0,5.0,62,-99.99,,,-99.99,0.000000,,2013-01-08 14:23:00,
2013-01-08 07:33:00,37.0,27.0,29.93,NW,305,6.0,11.0,66,-99.99,,,-99.99,0.000000,,2013-01-08 14:33:00,
2013-01-08 07:43:00,37.0,27.0,29.93,WNW,299,5.0,13.0,65,-99.99,,,-99.99,2.090000,,2013-01-08 14:43:00,
2013-01-08 07:53:00,36.0,26.0,29.95,ESE,115,7.0,16.0,67,-99.99,,,-99.99,9.070000,,2013-01-08 14:53:00,
2013-01-08 08:02:00,36.0,26.0,29.95,ESE,115,7.0,16.0,67,-99.99,,,-99.99,9.070000,,2013-01-08 15:02:00,
2013-01-08 08:12:00,34.0,27.0,29.96,NNW,332,5.0,9.0,75,-99.99,,,-99.99,25.799999,,2013-01-08 15:12:00,
2013-01-08 08:22:00,34.0,27.0,29.96,NNW,332,5.0,9.0,75,-99.99,,,-99.99,25.799999,,2013-01-08 15:22:00,
2013-01-08 08:33:00,36.0,27.0,29.96,NW,311,9.0,12.0,69,-99.99,,,-99.99,52.299999,,2013-01-08 15:33:00,
2013-01-08 08:43:00,37.0,26.0,29.96,WNW,285,5.0,12.0,64,-99.99,,,-99.99,67.639999,,2013-01-08 15:43:00,
2013-01-08 08:53:00,37.0,26.0,29.96,WNW,285,5.0,12.0,64,-99.99,,,-99.99,67.639999,,2013-01-08 15:53:00,
2013-01-08 09:03:00,40.0,25.0,29.96,NW,304,6.0,12.0,55,-99.99,,,-99.99,202.919998,,2013-01-08 16:03:00,
2013-01-08 09:12:00,44.0,25.0,29.97,WNW,294,5.0,11.0,46,-99.99,,,-99.99,348.670013,,2013-01-08 16:12:00,
2013-01-08 09:22:00,44.0,25.0,29.97,WNW,294,5.0,11.0,46,-99.99,,,-99.99,348.670013,,2013-01-08 16:22:00,
2013-01-08 09:33:00,44.0,26.0,29.98,East,79,5.0,9.0,47,-99.99,,,-99.99,407.940002,,2013-01-08 16:33:00,
2013-01-08 09:42:00,45.0,24.0,29.99,ENE,67,3.0,7.0,44,-99.99,,,-99.99,461.630005,,2013-01-08 16:42:00,
2013-01-08 09:53:00,45.0,24.0,29.99,ENE,67,3.0,7.0,44,-99.99,,,-99.99,461.630005,,2013-01-08 16:53:00,
2013-01-08 10:03:00,47.0,24.0,30.00,WSW,249,2.0,5.0,40,-99.99,,,-99.99,511.149994,,2013-01-08 17:03:00,
2013-01-08 10:13:00,48.0,23.0,30.00,SSE,149,3.0,9.0,37,-99.99,,,-99.99,564.140015,,2013-01-08 17:13:00,
2013-01-08 10:23:00,48.0,23.0,30.00,SSE,149,3.0,9.0,37,-99.99,,,-99.99,564.140015,,2013-01-08 17:23:00,
2013-01-08 10:33:00,47.0,24.0,30.00,SE,136,7.0,11.0,40,-99.99,,,-99.99,617.840027,,2013-01-08 17:33:00,
2013-01-08 10:43:00,46.0,25.0,30.00,ESE,116,6.0,11.0,42,-99.99,,,-99.99,661.070007,,2013-01-08 17:43:00,
2013-01-08 10:54:00,46.0,25.0,30.00,ESE,116,6.0,11.0,42,-99.99,,,-99.99,661.070007,,2013-01-08 17:54:00,
2013-01-08 11:03:00,45.0,24.0,30.00,ESE,120,6.0,10.0,44,-99.99,,,-99.99,694.539978,,2013-01-08 18:03:00,
2013-01-08 11:13:00,45.0,24.0,30.00,ESE,120,6.0,10.0,44,-99.99,,,-99.99,694.539978,,2013-01-08 18:13:00,
2013-01-08 11:23:00,45.0,24.0,30.00,ESE,120,6.0,10.0,44,-99.99,,,-99.99,694.539978,,2013-01-08 18:23:00,
2013-01-08 11:33:00,48.0,25.0,29.99,SSE,155,2.0,4.0,40,-99.99,,,-99.99,753.820007,,2013-01-08 18:33:00,
2013-01-08 11:43:00,47.0,25.0,29.99,SE,137,4.0,8.0,40,-99.99,,,-99.99,780.320007,,2013-01-08 18:43:00,
2013-01-08 11:53:00,47.0,25.0,29.99,SE,137,4.0,8.0,40,-99.99,,,-99.99,780.320007,,2013-01-08 18:53:00,
2013-01-08 12:00:00,50.0,25.0,29.99,ESE,108,2.0,5.0,36,-99.99,,,-99.99,771.950012,,2013-01-08 19:00:00,
2013-01-08 12:03:00,49.0,25.0,29.99,East,87,3.0,7.0,39,-99.99,,,-99.99,801.929993,,2013-01-08 19:03:00,
2013-01-08 12:12:00,49.0,25.0,29.99,ESE,113,3.0,6.0,38,-99.99,,,-99.99,817.270020,,2013-01-08 19:12:00,
2013-01-08 12:22:00,49.0,25.0,29.99,ESE,113,3.0,6.0,38,-99.99,,,-99.99,817.270020,,2013-01-08 19:22:00,
2013-01-08 12:32:00,50.0,25.0,29.99,ESE,108,2.0,5.0,36,-99.99,,,-99.99,771.950012,,2013-01-08 19:32:00,
2013-01-08 12:42:00,50.0,25.0,29.99,ESE,108,2.0,5.0,36,-99.99,,,-99.99,771.950012,,2013-01-08 19:42:00,
2013-01-08 12:53:00,50.0,25.0,29.99,ESE,108,2.0,5.0,36,-99.99,,,-99.99,771.950012,,2013-01-08 19:53:00,
2013-01-08 13:33:00,50.0,22.0,29.97,SE,131,6.0,12.0,32,-99.99,,,-99.99,836.799988,,2013-01-08 20:33:00,
2013-01-08 13:43:00,51.0,21.0,29.97,SE,131,5.0,9.0,31,-99.99,,,-99.99,824.950012,,2013-01-08 20:43:00,
2013-01-08 13:53:00,51.0,21.0,29.97,SE,131,5.0,9.0,31,-99.99,,,-99.99,824.950012,,2013-01-08 20:53:00,
2013-01-08 14:03:00,51.0,21.0,29.96,South,187,7.0,12.0,31,-99.99,,,-99.99,809.599976,,2013-01-08 21:03:00,
2013-01-08 14:12:00,52.0,21.0,29.96,South,182,5.0,9.0,29,-99.99,,,-99.99,788.679993,,2013-01-08 21:12:00,
2013-01-08 14:23:00,52.0,21.0,29.96,South,182,5.0,9.0,29,-99.99,,,-99.99,788.679993,,2013-01-08 21:23:00,
2013-01-08 14:33:00,51.0,20.0,29.96,SSE,159,5.0,10.0,28,-99.99,,,-99.99,762.880005,,2013-01-08 21:33:00,
2013-01-08 14:43:00,52.0,21.0,29.96,SE,144,4.0,9.0,29,-99.99,,,-99.99,728.710022,,2013-01-08 21:43:00,
2013-01-08 14:53:00,52.0,21.0,29.96,SE,144,4.0,9.0,29,-99.99,,,-99.99,728.710022,,2013-01-08 21:53:00,
2013-01-08 15:03:00,52.0,20.0,29.96,South,180,4.0,9.0,28,-99.99,,,-99.99,693.150024,,2013-01-08 22:03:00,
2013-01-08 15:12:00,52.0,21.0,29.96,SE,142,5.0,10.0,29,-99.99,,,-99.99,654.099976,,2013-01-08 22:12:00,
2013-01-08 15:23:00,52.0,21.0,29.96,SE,142,5.0,10.0,29,-99.99,,,-99.99,654.099976,,2013-01-08 22:23:00,
2013-01-08 15:33:00,52.0,21.0,29.97,ESE,120,5.0,8.0,29,-99.99,,,-99.99,610.169983,,2013-01-08 22:33:00,
2013-01-08 15:43:00,53.0,20.0,29.98,East,97,4.0,8.0,27,-99.99,,,-99.99,562.750000,,2013-01-08 22:43:00,
2013-01-08 15:53:00,54.0,20.0,29.98,East,86,2.0,5.0,26,-99.99,,,-99.99,509.049988,,2013-01-08 22:53:00,
2013-01-08 16:02:00,54.0,20.0,29.98,East,86,2.0,5.0,26,-99.99,,,-99.99,509.049988,,2013-01-08 23:02:00,
2013-01-08 16:12:00,53.0,19.0,29.99,ESE,120,3.0,7.0,25,-99.99,,,-99.99,457.450012,,2013-01-08 23:12:00,
2013-01-08 16:22:00,53.0,19.0,29.99,ESE,120,3.0,7.0,25,-99.99,,,-99.99,457.450012,,2013-01-08 23:22:00,
2013-01-08 16:32:00,53.0,18.0,29.99,SSE,150,3.0,5.0,25,-99.99,,,-99.99,399.570007,,2013-01-08 23:32:00,
2013-01-08 16:43:00,53.0,16.0,29.99,East,84,3.0,5.0,22,-99.99,,,-99.99,338.209991,,2013-01-08 23:43:00,
2013-01-08 16:53:00,53.0,16.0,29.99,East,84,3.0,5.0,22,-99.99,,,-99.99,338.209991,,2013-01-08 23:53:00,
2013-01-08 17:02:00,53.0,16.0,29.99,East,84,3.0,5.0,22,-99.99,,,-99.99,338.209991,,2013-01-09 00:02:00,
2013-01-08 17:12:00,50.0,21.0,29.99,West,269,1.0,3.0,31,-99.99,,,-99.99,20.219999,,2013-01-09 00:12:00,
2013-01-08 17:22:00,50.0,21.0,29.99,West,269,1.0,3.0,31,-99.99,,,-99.99,20.219999,,2013-01-09 00:22:00,
2013-01-08 17:33:00,48.0,20.0,30.00,WSW,252,4.0,5.0,32,-99.99,,,-99.99,15.340000,,2013-01-09 00:33:00,
2013-01-08 17:42:00,47.0,19.0,30.00,WSW,258,4.0,6.0,33,-99.99,,,-99.99,9.760000,,2013-01-09 00:42:00,
2013-01-08 17:53:00,47.0,19.0,30.00,WSW,258,4.0,6.0,33,-99.99,,,-99.99,9.760000,,2013-01-09 00:53:00,
2013-01-08 18:02:00,44.0,23.0,30.01,WNW,283,6.0,8.0,42,-99.99,,,-99.99,3.490000,,2013-01-09 01:02:00,
2013-01-08 18:12:00,43.0,23.0,30.02,WNW,293,7.0,9.0,43,-99.99,,,-99.99,0.700000,,2013-01-09 01:12:00,
2013-01-08 18:22:00,43.0,23.0,30.02,WNW,293,7.0,9.0,43,-99.99,,,-99.99,0.700000,,2013-01-09 01:22:00,
2013-01-08 18:32:00,43.0,23.0,30.02,WNW,296,8.0,10.0,45,-99.99,,,-99.99,0.000000,,2013-01-09 01:32:00,
2013-01-08 18:42:00,43.0,23.0,30.03,NW,312,8.0,11.0,44,-99.99,,,-99.99,0.000000,,2013-01-09 01:42:00,
2013-01-08 18:52:00,43.0,23.0,30.03,NW,312,8.0,11.0,44,-99.99,,,-99.99,0.000000,,2013-01-09 01:52:00,
2013-01-08 19:02:00,43.0,22.0,30.03,NW,304,10.0,12.0,41,-99.99,,,-99.99,0.000000,,2013-01-09 02:02:00,
2013-01-08 19:12:00,45.0,19.0,30.03,NW,305,6.0,9.0,35,-99.99,,,-99.99,0.000000,,2013-01-09 02:12:00,
2013-01-08 19:22:00,45.0,19.0,30.03,NW,305,6.0,9.0,35,-99.99,,,-99.99,0.000000,,2013-01-09 02:22:00,
2013-01-08 19:33:00,45.0,17.0,30.03,NNW,335,6.0,10.0,31,-99.99,,,-99.99,0.000000,,2013-01-09 02:33:00,
2013-01-08 19:43:00,45.0,17.0,30.03,NNW,335,6.0,10.0,31,-99.99,,,-99.99,0.000000,,2013-01-09 02:43:00,
2013-01-08 19:53:00,47.0,13.0,30.04,NNW,343,7.0,11.0,25,-99.99,,,-99.99,0.000000,,2013-01-09 02:53:00,
2013-01-08 20:03:00,47.0,13.0,30.04,NNW,343,7.0,11.0,25,-99.99,,,-99.99,0.000000,,2013-01-09 03:03:00,
2013-01-08 20:12:00,48.0,13.0,30.04,NNW,347,8.0,19.0,23,-99.99,,,-99.99,0.000000,,2013-01-09 03:12:00,
2013-01-08 20:22:00,48.0,13.0,30.04,NNW,347,8.0,19.0,23,-99.99,,,-99.99,0.000000,,2013-01-09 03:22:00,
2013-01-08 20:33:00,50.0,14.0,30.04,NNW,336,14.0,25.0,23,-99.99,,,-99.99,0.000000,,2013-01-09 03:33:00,
2013-01-08 20:43:00,50.0,14.0,30.04,NNW,330,17.0,25.0,23,-99.99,,,-99.99,0.000000,,2013-01-09 03:43:00,
2013-01-08 20:53:00,50.0,14.0,30.04,NNW,330,17.0,25.0,23,-99.99,,,-99.99,0.000000,,2013-01-09 03:53:00,
2013-01-08 21:02:00,50.0,14.0,30.05,NNW,331,13.0,24.0,23,-99.99,,,-99.99,0.000000,,2013-01-09 04:02:00,
2013-01-08 21:12:00,51.0,13.0,30.06,NNW,337,12.0,23.0,21,-99.99,,,-99.99,0.000000,,2013-01-09 04:12:00,
2013-01-08 21:22:00,51.0,13.0,30.06,NNW,337,12.0,23.0,21,-99.99,,,-99.99,0.000000,,2013-01-09 04:22:00,
2013-01-08 21:32:00,50.0,13.0,30.06,North,356,4.0,12.0,22,-99.99,,,-99.99,0.000000,,2013-01-09 04:32:00,
2013-01-08 21:42:00,49.0,12.0,30.06,West,273,2.0,7.0,22,-99.99,,,-99.99,0.000000,,2013-01-09 04:42:00,
2013-01-08 21:52:00,49.0,12.0,30.06,West,273,2.0,7.0,22,-99.99,,,-99.99,0.000000,,2013-01-09 04:52:00,
2013-01-08 22:03:00,50.0,11.0,30.06,WNW,300,4.0,19.0,20,-99.99,,,-99.99,0.000000,,2013-01-09 05:03:00,
2013-01-08 22:12:00,50.0,11.0,30.05,SW,231,5.0,16.0,20,-99.99,,,-99.99,0.000000,,2013-01-09 05:12:00,
2013-01-08 22:22:00,50.0,11.0,30.05,SW,231,5.0,16.0,20,-99.99,,,-99.99,0.000000,,2013-01-09 05:22:00,
2013-01-08 22:33:00,50.0,10.0,30.05,SW,216,3.0,7.0,19,-99.99,,,-99.99,0.000000,,2013-01-09 05:33:00,
2013-01-08 22:42:00,51.0,9.0,30.05,NNW,336,5.0,19.0,17,-99.99,,,-99.99,0.000000,,2013-01-09 05:42:00,
2013-01-08 22:53:00,51.0,9.0,30.05,NNW,336,5.0,19.0,17,-99.99,,,-99.99,0.000000,,2013-01-09 05:53:00,
2013-01-08 23:02:00,50.0,10.0,30.07,WSW,249,8.0,15.0,19,-99.99,,,-99.99,0.000000,,2013-01-09 06:02:00,
2013-01-08 23:12:00,51.0,9.0,30.08,WNW,287,9.0,14.0,18,-99.99,,,-99.99,0.000000,,2013-01-09 06:12:00,
2013-01-08 23:22:00,51.0,9.0,30.08,WNW,287,9.0,14.0,18,-99.99,,,-99.99,0.000000,,2013-01-09 06:22:00,
2013-01-08 23:32:00,49.0,9.0,30.08,NNW,327,5.0,9.0,19,-99.99,,,-99.99,0.000000,,2013-01-09 06:32:00,
2013-01-08 23:42:00,50.0,9.0,30.08,North,1,11.0,32.0,18,-99.99,,,-99.99,0.000000,,2013-01-09 06:42:00,
2013-01-08 23:52:00,50.0,10.0,30.06,North,351,26.0,36.0,19,-99.99,,,-99.99,0.000000,,2013-01-09 06:52:00,